Location: Godiavel Galaoual
(15.2485°N, 12.6604°W)
Time: 05:08:10
(UTC+00:00)

BUGSAT 1 - Visible Passes

Search period start: 29 July 2021 00:00
Search period end: 08 August 2021 00:00
Orbit: 557 x 602 km, 98.1° (Epoch: 28 July)

Date Brightness Start Highest point End Pass type
(mag) Time Alt. Az. Time Alt. Az. Time Alt. Az.
29 Jul ? 04:39:47 10° NE 04:43:26 29° E 04:46:05 16° SSE visible
30 Jul ? 04:44:31 10° NE 04:48:20 34° E 04:51:02 17° SSE visible
31 Jul ? 04:49:17 10° NNE 04:53:13 40° E 04:55:59 18° SSE visible
01 Aug ? 04:54:04 10° NNE 04:58:06 47° E 05:00:56 18° SSE visible
02 Aug ? 04:58:52 10° NNE 05:02:59 56° ESE 05:05:53 19° S visible
03 Aug ? 05:03:42 10° NNE 05:07:52 66° ESE 05:10:50 19° S visible
04 Aug ? 05:08:32 10° NNE 05:12:44 78° ESE 05:15:47 18° S visible
05 Aug ? 05:13:24 10° NNE 05:17:36 90° NW 05:20:43 18° SSW visible
06 Aug ? 05:18:17 10° N 05:22:29 77° WNW 05:25:40 17° SSW visible
07 Aug ? 05:23:10 10° N 05:27:20 65° WNW 05:30:37 16° SSW visible
